Погода в Котласе

Погода в Котласе : погода сейчас, прогноз погоды и архив. Всё, что Вы хотите узнать о погоде в Котласе!

Поиск расширенной информации на нашем сайте:

Другие новости

Новости СМИ2

Главная страница сайта

Новости сайта

02.10.2013

Напоминаем, что на нашем новом сайте вы можете получить высокодетализированные прогнозы погоды по пунктам России, СНГ и мира (включающие важные для авиации метеовеличины, такие как направление и скорость ветра, видимость, явления погоды, количество и форма облачности, нижняя и верхняя граница облачности), а также ознакомиться с разнообразными материалами по авиационной метеорологии и подборкой полезных ссылок на эту тему.

Сайт Метеоцентр.Азия посвящён разработке технологий оптимизации авиаметеорологического обслуживания, включая проектирование и перспективное создание нескольких автоматизированных авиаметеорологических систем:
- система выпуска высокодетальных прогностических карт явлений погоды для нижнего воздушного пространства по России и ближнему зарубежью;
- система верификации прогнозов TAF (выпускаемых синоптиками официальных АМСГ РФ и ближнего зарубежья) и AUTOTAF (выпускаемых сайтом Метеоцентр.Азия) - выявление ошибок, онлайн-сопоставление с фактической погодой METAR, автоматическое внесение коррективов в прогнозы при резком отклонении фактической погоды от прогноза, подсчёт оправдываемости прогнозов по элементам и в целом;
- система обработки, анализа и отображения авиаметеорологической информации для применения провайдерами метеорологической информации.


Погода в Котласе - сегодня

Время (UTC), дата Ветер
(°,м/с) 
Видим.   Явления Облачность Т
(°С)
Тd
(°С)
f(%) Тe
(°С)
Pmin
(гПа)
dP
(гПа)
Po
(мм)
O2
(г/м3)
Тmin Tmax R s Состояние
почвы
15 25.05.17 160 (Ю) 20000 м    10/0 средняя, верхняя 
[Ac trans|Ci fib]
+18.3 -1.7 26 +19  1009.7  -3.1  752  284    +19.1       
18 25.05.17 100 (В) 20000 м    10/4 300 м средняя, верхняя 
[Sc|Ac trans|Ci fib]
+15.1 -1.9 31 +16  1007.3  -2.5  750  287           
21 25.05.17 130 (ЮВ) 10 км  слаб. дождь  10/6 300 м средняя 
[Frnb|As op]
+13.7 +1.5 43 +13  1003.9  -3.3  748  287           
00 26.05.17 160 (Ю) 4{10}  10 км  слаб. дождь  10/8 400 м средняя 
[Frnb|As op]
+9 +7.6 91 +8  999.3  -4.7  744  289           
03 26.05.17 180 (Ю) 20000 м  {дождь}  10/8 720 м средняя 
[Sc|Ac und]
+11.1 +7.8 80 +11  998.9  -0.4  744  287  +8.2      влажная 
06 26.05.17 210 (ЮЗ) 6-10{10}  10 км  слаб. ливневой дождь  10/8 540 м кучево-дожд., средняя 
[Cb cap|Ac und]
+10.5 +7.8 83 +9  998.3  -0.6  744  287           
09 26.05.17 310 (СЗ) 7-11{11}  20000 м  {ливн. осадки}  8/4 600 м средняя, верхняя 
[Sc|Ac trans|Ci fib]
+13 +7.4 69 +12  1002.3  4.1  747  286           
12 26.05.17 270 (З) 4{11}  20000 м  {ливн. осадки}  10/4 600 м средняя, верхняя 
[Sc|Ac trans|Ci fib]
+15.4 +5.8 53 +15  1004.2  1.9  748  284           
18 26.05.17 190 (Ю) 20000 м  в посл. час ливневой дождь  10/4 300 м кучево-дожд., средняя 
[Cb cap|Ac und]
+12.2 +9 81 +12  1002.9  -0.9  747  287           
03 27.05.17 340 (С) 5-10{11}  10 км  слаб. ливневой дождь  10/8 360 м кучево-дожд., средняя 
[Cb cap|Ac und]
+2.2 +0.3 87 1006.2  2.6  749  300  +2.1      влажная 
18 27.05.17 310 (СЗ) 20000 м    6/3 1000 м средняя, верхняя 
[Sc|Ac trans|Ci fib]
+3 -5.4 54 +2  1013.8  755  302           
21 27.05.17 тихо ()   10 км    4/0 средняя, верхняя 
[Ac trans|Ci fib]
-2.6 -3.9 91 -3  1014  755  308           
00 28.05.17 320 (СЗ) 20000 м    8/0 средняя, верхняя 
[Ac trans|Ci fib]
+0.5 -3.8 73 +1  1013.7  -0.3  755  304           
03 28.05.17 310 (СЗ) 20000 м    8/3 1000 м средняя, верхняя 
[Sc|Ac trans|Ci fib]
+2.2 -3.1 68 +2  1014  0.5  755  302  -3.4        влажная 
06 28.05.17 320 (СЗ) 20000 м  в посл. час крупа  9/6 600 м кучево-дожд., средняя 
[Cb cap|Ac trans]
+4.2 -4.4 53 +3  1014.2  0.2  755  300           
12 28.05.17 340 (С) 5{10}  20000 м  {ливн. осадки}  9/6 750 м кучево-дожд., средняя 
[Cb cap|Ac trans]
+7.4 -4.1 44 +6  1013.8  -0.1  755  297           
15 28.05.17 310 (СЗ) 4{11}  20000 м    9/4 600 м кучево-дожд., средняя 
[Cb cap|Ac trans]
+6.2 -5.4 43 +5  1013.8  -0.1  755  298    +7.4  0.0     
18 28.05.17 270 (З) 20000 м    8/4 600 м средняя, верхняя 
[Sc|Ac trans|Ci fib]
+2.6 -5.6 55 +3  1013.3  -0.5  755  302           
21 28.05.17 230 (ЮЗ) 10 км    9/4 600 м средняя, верхняя 
[Sc|Ac trans|Ci fib]
-0.8 -3 85 1013.1  -0.4  755  305           
00 29.05.17 180 (Ю) 20000 м    10/3 1000 м средняя 
[Sc|Ac und]
-1.2 -3.5 84 -1  1012.5  -0.6  754  306           
03 29.05.17 190 (Ю) 20000 м    4/0 средняя, верхняя 
[Ac trans|Ci fib]
+4 -3.6 58 +4  1010.2  -2.1  752  299  -1.2        сухая 
06 29.05.17 200 (Ю) 20000 м    8/4 600 м верхняя 
[Sc|Ci fib]
+8.2 -5 39 +8  1007.3  -2.8  750  294           
09 29.05.17 130 (ЮВ) 20000 м    10/4 600 м средняя, верхняя 
[Sc|Ac trans|Cs]
+10 -4.4 36 +9  1004.7  -2.5  749  291           
12 29.05.17 170 (Ю) 4{10}  20000 м    10/4 1000 м средняя, верхняя 
[Sc|Ac trans|Cc]
+11 -3.3 37 +10  1002.2  -2.5  747  290           
15 29.05.17 160 (Ю) 20000 м    10/3 1000 м средняя 
[Sc|Ac und]
+10 -3 40 +9  1000.5  -1.7  745  290    +11       
Время (UTC), дата Ветер
(°,м/с) 
Видим.   Явления Облачность Т
(°С)
Тd
(°С)
f(%) Тe
(°С)
Pmin
(гПа)
dP
(гПа)
Po
(мм)
O2
(г/м3)
Тmin Tmax R s Состояние
почвы

Для получения пояснительной информации подведите курсор к названию столбца.

ПОГОДА в Котласе - архив

Всё, что Вы хотите узнать о погоде в Котласе - удобно и подробно!

Выберите нужную дату (начиная с 1 января 2015* года) и нажмите кнопку "Найти".
Будут отображены архивные сводки погоды по пункту Котлас, начиная с указанной даты.


Отображать данные в формате CSV (для использования в таблицах Excel)


Внимание! Наш архив погоды предназначен исключительно для личного некоммерческого использования в познавательных целях. Если Вам необходимы официальные справки о состоянии погоды (для производственных, юридических, коммерческих и т.п. целей), обращайтесь в органы Росгидромета.

*Примечание: данная дата относится к архиву по метеостанциям СССР (Россия, СНГ, Балтия).
Архив по метеостанциям Зарубежной Европы и Азии (кроме Китая) хранится 10 дней, по другим регионам земного шара (Китай, Африка, Америка, Австралия, Океания) - 1 день.

Котлас - район местоположения метеостанции


Название, широта, долгота, высота метеостанции:
Котлас 61.2°ш. 46.7°д. 56 м над ур. моря [Российская Федерация]

Дополнительная информация

В oтличие oт бoльшинства пoгoдных сайтoв мы публикуем пoдрoбную метеoинфoрмацию в детальнoм прoфессиoнальнoм фoрмате.

Характеристики температуры и влажнoсти вoздуха измеряются на высoте 2 м в тени вдали oт зданий и деревьев.
Скoрoсть ветра измеряется на высoте 10 м (на урoвне рoста челoвека скoрoсть ветра ниже в 1.5-2 раза). Если метеoстанция нахoдится в гoрoде или в лесу, тo скoрoсть ветра занижена на 2-4 м/с пo сравнению с oткрытым местoм. Скoрoсть ветра над акватoриями крупных рек и oзёр, а также на вершинах хoлмoв на 2-5 м/с выше, чем в oбычных услoвиях.
Атмoсфернoе давление в разных тoчках местнoсти мoжет значительнo oтличаться oт давления на метеoстанции, в зависимoсти oт услoвий рельефа (при пoдъёме на 10 м давление пoнижается примернo на 1 мм рт.ст.).